KE8GJZ-1 Weather Reports


time (UTC)temp
F
wind
direction
speed
knots
gust
knots
rain 1hr
in
rain 24hr
in
rain mn
in
humidity
%
barometer
mb
20260503021934 37 223 0.0 0.0 0.00 0.00 0.00 77 1014.6
20260503021430 37 224 0.0 0.0 0.00 0.00 0.00 76 1014.5
20260503020928 37 226 0.0 0.0 0.00 0.00 0.00 75 1014.5
20260503020426 38 226 0.0 0.0 0.00 0.00 0.00 75 1014.5
20260503015922 38 226 0.0 0.0 0.00 0.00 0.00 73 1014.4
20260503015419 38 226 0.0 0.0 0.00 0.00 0.00 69 1014.5
20260503014915 39 227 0.0 0.0 0.00 0.00 0.00 67 1014.4
20260503014412 39 227 0.0 0.0 0.00 0.00 0.00 66 1014.3
20260503013910 39 227 0.0 0.0 0.00 0.00 0.00 65 1014.4
20260503013407 40 227 0.0 0.0 0.00 0.00 0.00 63 1014.3
20260503012904 40 227 0.0 0.0 0.00 0.00 0.00 62 1014.2
20260503012402 41 227 0.0 0.0 0.00 0.00 0.00 62 1014.2
20260503011858 41 227 0.0 0.0 0.00 0.00 0.00 60 1014.2
20260503011355 42 227 0.0 0.0 0.00 0.00 0.00 58 1014.0
20260503010851 42 227 0.0 0.0 0.00 0.00 0.00 58 1014.2
20260503010348 42 227 0.0 0.0 0.00 0.00 0.00 58 1014.1
20260503005845 43 227 0.0 0.0 0.00 0.00 0.00 57 1014.0
20260503005343 43 227 0.0 0.0 0.00 0.00 0.00 54 1014.0
20260503004839 44 227 0.0 0.0 0.00 0.00 0.00 54 1014.3
20260503004336 44 227 0.0 0.0 0.00 0.00 0.00 52 1014.0
20260503003834 45 229 0.0 0.0 0.00 0.00 0.00 50 1013.8
20260503003331 45 229 0.0 0.0 0.00 0.00 0.00 49 1014.0
20260503002827 46 274 0.0 0.0 0.00 0.00 0.00 48 1014.2
20260503002325 46 205 0.0 0.0 0.00 0.00 0.00 49 1014.1
20260503001821 46 281 0.0 0.0 0.00 0.00 0.00 46 1013.9
20260503001317 46 171 0.9 0.9 0.00 0.00 0.00 48 1013.9
20260503000815 46 253 0.0 0.0 0.00 0.00 0.00 48 1013.8
20260503000313 46 248 0.0 0.0 0.00 0.00 0.00 47 1013.8
20260502235809 47 187 0.0 0.0 0.00 0.00 0.00 48 1013.9
20260502235307 47 237 0.0 0.0 0.00 0.00 0.00 47 1013.9
20260502234803 47 236 0.0 0.0 0.00 0.00 0.00 49 1013.9
20260502234300 47 269 0.0 0.0 0.00 0.00 0.00 48 1013.8
20260502233756 47 307 0.0 0.0 0.00 0.00 0.00 49 1013.9
20260502233253 47 299 0.0 0.0 0.00 0.00 0.00 46 1014.0
20260502232749 47 263 0.0 0.0 0.00 0.00 0.00 49 1014.1
20260502232246 47 188 0.0 0.0 0.00 0.00 0.00 47 1014.0
20260502231743 48 284 0.0 0.0 0.00 0.00 0.00 49 1014.0
20260502231241 48 289 0.0 0.9 0.00 0.00 0.00 48 1014.3
20260502230739 48 210 0.0 0.0 0.00 0.00 0.00 48 1014.0
20260502230237 48 276 0.0 0.0 0.00 0.00 0.00 46 1014.3
20260502225733 48 322 0.9 0.9 0.00 0.00 0.00 47 1014.3
20260502225230 48 296 0.0 0.9 0.00 0.00 0.00 48 1014.1
20260502224726 48 278 0.0 0.9 0.00 0.00 0.00 47 1014.2
20260502224223 48 150 0.9 1.7 0.00 0.00 0.00 45 1014.1
20260502223721 48 322 0.0 0.9 0.00 0.00 0.00 44 1014.3
20260502223218 48 315 0.9 0.9 0.00 0.00 0.00 45 1014.2
20260502222716 47 139 0.0 0.0 0.00 0.00 0.00 45 1014.3
20260502222212 48 290 0.0 0.9 0.00 0.00 0.00 44 1014.3
20260502221709 48 291 0.0 0.0 0.00 0.00 0.00 45 1014.3
20260502221205 48 250 0.0 0.0 0.00 0.00 0.00 44 1014.2
20260502220701 48 158 0.9 1.7 0.00 0.00 0.00 45 1014.2
20260502220158 48 55 0.0 0.9 0.00 0.00 0.00 44 1014.4
20260502215655 48 200 0.0 0.9 0.00 0.00 0.00 43 1014.4
20260502215152 48 60 0.0 0.0 0.00 0.00 0.00 43 1014.1
20260502214649 48 262 0.0 0.0 0.00 0.00 0.00 44 1014.4
20260502214146 48 299 0.0 0.9 0.00 0.00 0.00 45 1014.3
20260502213643 48 159 1.7 1.7 0.00 0.00 0.00 43 1014.5
20260502213140 48 290 0.9 1.7 0.00 0.00 0.00 42 1014.3
20260502212639 49 123 0.0 0.9 0.00 0.00 0.00 41 1014.4
20260502212137 49 155 0.9 0.9 0.00 0.00 0.00 43 1014.4
20260502211632 48 44 0.0 0.9 0.00 0.00 0.00 43 1014.0
20260502211130 49 304 0.9 0.9 0.00 0.00 0.00 42 1014.3
20260502210627 49 190 0.0 0.0 0.00 0.00 0.00 44 1014.6
20260502210124 48 299 0.0 0.0 0.00 0.00 0.00 44 1014.4
20260502205621 48 194 0.0 0.0 0.00 0.00 0.00 43 1014.3
20260502205117 49 105 0.0 0.0 0.00 0.00 0.00 42 1014.2
20260502204614 49 192 0.0 0.0 0.00 0.00 0.00 42 1014.6
20260502204112 49 326 0.9 0.9 0.00 0.00 0.00 42 1014.5
20260502203609 48 329 0.9 0.9 0.00 0.00 0.00 43 1014.4
20260502203106 48 177 0.0 0.0 0.00 0.00 0.00 42 1014.6
20260502202602 48 165 0.9 0.9 0.00 0.00 0.00 42 1014.7
20260502202100 48 87 0.9 0.9 0.00 0.00 0.00 44 1014.8
20260502201556 47 181 0.0 0.0 0.00 0.00 0.00 43 1014.8
20260502201053 47 330 0.0 0.9 0.00 0.00 0.00 44 1015.0
20260502200548 48 150 1.7 1.7 0.00 0.00 0.00 42 1014.9
20260502200047 49 143 0.0 0.9 0.00 0.00 0.00 41 1014.8
20260502195544 50 129 0.0 0.9 0.00 0.00 0.00 41 1015.1
20260502195040 49 252 0.0 0.9 0.00 0.00 0.00 41 1014.8
20260502194537 49 240 0.0 0.9 0.00 0.00 0.00 42 1015.0
20260502194033 49 257 1.7 1.7 0.00 0.00 0.00 40 1015.0
20260502193530 49 137 1.7 1.7 0.00 0.00 0.00 39 1015.1
20260502193027 50 116 0.0 0.9 0.00 0.00 0.00 38 1015.1
20260502192522 48 190 0.0 0.9 0.00 0.00 0.00 45 1015.1
20260502192020 48 318 0.9 0.9 0.00 0.00 0.00 42 1015.2
20260502191517 49 184 0.0 0.0 0.00 0.00 0.00 42 1015.4
20260502191015 50 174 0.0 0.9 0.00 0.00 0.00 41 1015.3
20260502190512 49 294 1.7 4.3 0.00 0.00 0.00 42 1015.4
20260502190009 48 247 0.0 0.0 0.00 0.00 0.00 41 1015.6
20260502185504 49 341 0.9 0.9 0.00 0.00 0.00 41 1015.1
20260502185001 50 294 0.0 0.9 0.00 0.00 0.00 38 1015.4
20260502184456 51 255 0.9 0.9 0.00 0.00 0.00 40 1015.4
20260502183953 50 119 0.9 1.7 0.00 0.00 0.00 39 1015.3
20260502183449 51 129 0.0 0.0 0.00 0.00 0.00 36 1015.4
20260502182944 53 287 0.9 1.7 0.00 0.00 0.00 37 1015.3
20260502182440 50 334 0.9 2.6 0.00 0.00 0.00 42 1015.6
20260502181936 48 187 0.0 0.9 0.00 0.00 0.00 42 1015.7
20260502181435 49 294 0.9 0.9 0.00 0.00 0.00 40 1015.5
20260502180933 50 150 0.9 0.9 0.00 0.00 0.00 38 1015.6
20260502180430 50 281 0.9 0.9 0.00 0.00 0.00 41 1015.9
20260502170349 50 246 0.0 0.9 0.00 0.00 0.00 38 1016.0
20260502164336 51 175 0.9 1.7 0.00 0.00 0.00 39 1016.2
20260502163832 51 304 0.0 0.0 0.00 0.00 0.00 37 1016.2
20260502163328 51 294 0.9 0.9 0.00 0.00 0.00 39 1016.2
20260502162826 51 279 0.0 0.9 0.00 0.00 0.00 38 1016.2
20260502162322 48 115 0.9 1.7 0.00 0.00 0.00 41 1016.2
20260502161820 47 289 0.0 0.0 0.00 0.00 0.00 44 1016.3
20260502161315 48 162 1.7 1.7 0.00 0.00 0.00 43 1016.4
20260502160814 48 234 0.9 1.7 0.00 0.00 0.00 43 1016.3
20260502160312 48 168 1.7 2.6 0.00 0.00 0.00 41 1016.3
20260502152235 47 246 0.0 0.0 0.00 0.00 0.00 47 1016.2
20260502151733 46 287 0.9 1.7 0.00 0.00 0.00 48 1016.2
20260502151230 45 244 0.0 0.0 0.00 0.00 0.00 46 1016.3
20260502150727 45 76 1.7 1.7 0.00 0.00 0.00 46 1016.1
20260502150224 45 304 1.7 2.6 0.00 0.00 0.00 47 1016.3
20260502130613 39 312 0.0 0.0 0.00 0.00 0.00 65 1016.5
20260502130110 39 180 0.9 0.9 0.00 0.00 0.00 68 1016.4
20260502123556 37 159 0.0 0.0 0.00 0.00 0.00 73 1016.1
20260502123052 37 271 0.0 0.0 0.00 0.00 0.00 73 1016.2
20260502122548 36 253 0.0 0.0 0.00 0.00 0.00 75 1016.3
20260502122046 36 278 0.0 0.0 0.00 0.00 0.00 76 1016.3
20260502121543 36 231 0.0 0.0 0.00 0.00 0.00 77 1016.0
20260502121041 35 239 0.0 0.0 0.00 0.00 0.00 79 1016.3
20260502120537 35 263 0.0 0.0 0.00 0.00 0.00 80 1016.1
20260502115532 33 281 0.0 0.0 0.00 0.00 0.00 82 1016.1
20260502115027 33 223 0.0 0.0 0.00 0.00 0.00 85 1016.1
20260502114524 33 300 0.0 0.0 0.00 0.00 0.00 86 1016.1
20260502114021 32 251 0.0 0.0 0.00 0.00 0.00 87 1016.2
20260502113518 32 269 0.0 0.0 0.00 0.00 0.00 88 1016.0
20260502113017 32 256 0.0 0.0 0.00 0.00 0.00 89 1016.1
20260502112515 32 301 0.0 0.0 0.00 0.00 0.00 89 1015.9
20260502112012 31 293 0.0 0.0 0.00 0.00 0.00 90 1015.8
20260502111509 31 302 0.0 0.0 0.00 0.00 0.00 90 1016.0
20260502111006 31 266 0.0 0.0 0.00 0.00 0.00 90 1015.8
20260502110504 31 269 0.0 0.0 0.00 0.00 0.00 90 1015.7
20260502110001 31 266 0.0 0.0 0.00 0.00 0.00 90 1015.9
20260502105459 31 268 0.0 0.0 0.00 0.00 0.00 89 1015.7
20260502104956 31 264 0.0 0.0 0.00 0.00 0.00 89 1015.7
20260502104453 31 263 0.0 0.0 0.00 0.00 0.00 89 1015.7
20260502103950 31 262 0.0 0.0 0.00 0.00 0.00 88 1015.8
20260502103448 31 266 0.0 0.0 0.00 0.00 0.00 88 1015.8
20260502102944 31 270 0.0 0.0 0.00 0.00 0.00 87 1015.8
20260502102442 31 271 0.0 0.0 0.00 0.00 0.00 87 1015.5
20260502101938 31 271 0.0 0.0 0.00 0.00 0.00 87 1015.7
20260502101437 31 271 0.0 0.0 0.00 0.00 0.00 86 1015.5
20260502100935 32 299 0.0 0.0 0.00 0.00 0.00 86 1015.7
20260502100434 32 298 0.0 0.0 0.00 0.00 0.00 85 1015.8
20260502091408 33 258 0.0 0.0 0.00 0.00 0.00 80 1015.4
20260502090905 33 270 0.0 0.0 0.00 0.00 0.00 79 1015.3
20260502090402 34 296 0.0 0.0 0.00 0.00 0.00 78 1015.4
20260502071257 38 281 0.0 0.0 0.00 0.00 0.00 71 1014.8
20260502070755 38 306 0.0 0.0 0.00 0.00 0.00 69 1014.9
20260502070252 38 265 0.0 0.0 0.00 0.00 0.00 69 1014.8
20260502065751 38 237 0.0 0.0 0.00 0.00 0.00 67 1014.7
20260502065249 38 237 0.0 0.0 0.00 0.00 0.00 68 1014.8
20260502064747 39 237 0.0 0.0 0.00 0.00 0.00 68 1015.1
20260502064244 39 301 0.0 0.0 0.00 0.00 0.00 67 1015.0
20260502063741 39 301 0.0 0.0 0.00 0.00 0.00 66 1015.1
20260502063240 39 301 0.0 0.0 0.00 0.00 0.00 66 1015.1
20260502062736 39 301 0.0 0.0 0.00 0.00 0.00 67 1015.2
20260502062234 39 301 0.0 0.0 0.00 0.00 0.00 67 1015.0
20260502061732 39 305 0.0 0.0 0.00 0.00 0.00 68 1015.2
20260502061229 39 301 0.0 0.0 0.00 0.00 0.00 69 1015.1
20260502060724 39 120 0.0 0.0 0.00 0.00 0.00 66 1015.4
20260502060220 39 250 0.0 0.0 0.00 0.00 0.00 69 1015.3
20260502055718 39 249 0.0 0.0 0.00 0.00 0.00 70 1015.1
20260502055216 39 255 0.0 0.0 0.00 0.00 0.00 70 1015.2
20260502054715 39 296 0.0 0.0 0.00 0.00 0.00 69 1015.3
20260502054212 39 296 0.0 0.0 0.00 0.00 0.00 69 1015.3
20260502053710 39 296 0.0 0.0 0.00 0.00 0.00 69 1015.3
20260502053207 39 296 0.0 0.0 0.00 0.00 0.00 68 1015.4
20260502052705 39 296 0.0 0.0 0.00 0.00 0.00 68 1015.1
20260502052203 39 91 0.0 0.0 0.00 0.00 0.00 68 1015.2
20260502051701 40 204 0.0 0.0 0.00 0.00 0.00 69 1015.3
20260502051159 40 275 0.0 0.0 0.00 0.00 0.00 69 1015.3
20260502050655 40 249 0.0 0.0 0.00 0.00 0.00 69 1015.3
20260502050151 40 238 0.0 0.0 0.00 0.00 0.00 70 1015.2
20260502045647 40 235 0.0 0.0 0.00 0.00 0.00 70 1015.3
20260502045145 40 231 0.0 0.0 0.00 0.00 0.00 70 1015.1
20260502044642 40 262 0.0 0.0 0.00 0.00 0.00 72 1015.0
20260502044138 40 236 0.0 0.0 0.00 0.00 0.00 70 1014.8
20260502043636 40 232 0.0 0.0 0.00 0.00 0.00 71 1015.2
20260502043133 40 235 0.0 0.0 0.00 0.00 0.00 71 1015.1
20260502042632 40 235 0.0 0.0 0.00 0.00 0.00 71 1014.9
20260502042130 40 232 0.0 0.0 0.00 0.00 0.00 71 1014.8
20260502041627 40 191 0.0 0.0 0.00 0.00 0.00 72 1014.7
20260502041124 40 286 0.0 0.0 0.00 0.00 0.00 72 1014.9
20260502040621 39 248 0.0 0.0 0.00 0.00 0.00 75 1014.8
20260502040119 39 191 0.0 0.9 0.00 0.00 0.00 74 1015.0
20260502035614 39 253 0.0 0.0 0.00 0.00 0.00 76 1014.6
20260502035112 39 253 0.0 0.0 0.00 0.00 0.00 77 1014.6
20260502034609 39 254 0.0 0.0 0.00 0.00 0.00 77 1014.6
20260502034108 39 253 0.0 0.0 0.00 0.00 0.00 78 1014.4
20260502033605 38 242 0.0 0.0 0.00 0.00 0.00 78 1014.7
20260502033103 38 240 0.0 0.0 0.00 0.00 0.00 80 1014.5
20260502032558 38 241 0.0 0.0 0.00 0.00 0.00 81 1014.6
20260502032055 38 233 0.0 0.0 0.00 0.00 0.00 80 1014.5
20260502031553 38 239 0.0 0.0 0.00 0.00 0.00 80 1014.5
20260502031050 38 286 0.0 0.0 0.00 0.00 0.00 79 1014.5
20260502030549 39 254 0.0 0.0 0.00 0.00 0.00 78 1014.5
20260502030047 39 253 0.0 0.0 0.00 0.00 0.00 77 1014.5
20260502025544 39 253 0.0 0.0 0.00 0.00 0.00 77 1014.5
20260502025042 39 253 0.0 0.0 0.00 0.00 0.00 75 1014.3
20260502024539 40 253 0.0 0.0 0.00 0.00 0.00 76 1014.4
20260502024038 40 253 0.0 0.0 0.00 0.00 0.00 76 1014.4
20260502023534 40 254 0.0 0.0 0.00 0.00 0.00 75 1014.3
20260502023032 40 254 0.0 0.0 0.00 0.00 0.00 73 1014.3
20260502022528 40 254 0.0 0.0 0.00 0.00 0.00 74 1014.3